Location: Brahman Valley
(40.6513°N, 111.8855°W)
Time: 18:50:49
(UTC+00:00)

DELFI C3 - Visible Passes

Search period start: 22 June 2021 00:00
Search period end: 02 July 2021 00:00
Orbit: 530 x 548 km, 97.4° (Epoch: 22 June)

Date Brightness Start Highest point End Pass type
(mag) Time Alt. Az. Time Alt. Az. Time Alt. Az.
27 Jun ? 04:03:02 10° WSW 04:04:36 12° W 04:06:10 10° WNW visible
28 Jun ? 03:54:38 10° SW 03:56:53 15° W 03:59:09 10° WNW visible
29 Jun ? 03:46:28 10° SW 03:49:11 18° W 03:51:53 10° NW visible
30 Jun ? 03:38:25 10° SSW 03:41:28 22° W 03:44:32 10° NW visible
